Regional Weather Roundup
Issued by NWS Wilmington, NC

Home | Current Version | Previous Version | Text Only | Print | Product List | Glossary On
Versions: 1 2 3 4 5 6 7 8 9 10 11 12 13 14 15 16 17 18 19 20 21 22 23 24 25 26 27 28
000
ASUS42 KILM 180013
RWRILM
RWRILM
REGIONAL HOURLY WEATHER ROUNDUP
NATIONAL WEATHER SERVICE WILMINGTON NC
800 PM EDT THU AUG 17 2017

NOTE: "FAIR" INDICATES FEW OR NO CLOUDS BELOW 12,000 FEET WITH NO
SIGNIFICANT WEATHER AND/OR OBSTRUCTIONS TO VISIBILITY.

...............WFO WILMINGTON COUNTY WARNING AREA...............

......COASTAL NC AND SC COUNTIES......

CITY           SKY/WX    TMP DP  RH WIND       PRES   REMARKS
WILMINGTON     CLOUDY    80  77  90 S3        29.97F
N MYRTLE BEACH CLOUDY    78  77  96 E5        29.97F
MYRTLE BEACH   PTCLDY    81  75  83 SE7       29.98F

......INLAND NC AND SC COUNTIES.......

CITY           SKY/WX    TMP DP  RH WIND       PRES   REMARKS
LUMBERTON      PTCLDY    78  75  90 CALM      29.96S
ELIZABETHTOWN  NOT AVBL
WHITEVILLE     NOT AVBL
FLORENCE       PTCLDY    84  76  76 SE7       29.96F HX  93
DARLINGTON     PTCLDY    84  79  85 SE6       29.96S HX  96
KINGSTREE      FAIR      81  77  89 SE3       29.98R
HARTSVILLE     FAIR      82  75  78 SE3       29.96S
BENNETTSVILLE  FAIR      86  79  79 SE8       29.95S HX  99
CONWAY         FAIR      77  73  88 CALM      29.97S
GEORGETOWN     FAIR      79  79 100 CALM      29.99R
MARION         FAIR      79  73  83 CALM      29.97S

....................REST OF NORTH CAROLINA......................

.........EASTERN NC.........

CITY           SKY/WX    TMP DP  RH WIND       PRES   REMARKS
CAPE HATTERAS  CLEAR     82  74  76 S7        30.01S
JACKSONVILLE   MOCLDY    82  80  94 S5        29.99S HX  94
MOREHEAD CITY  CLOUDY    82  79  90 S5        30.00R HX  92
KENANSVILLE    CLOUDY    77  75  94 CALM      29.98S
NEW BERN       CLOUDY    82  79  90 S6        30.01R HX  92
ELIZABETH CITY PTCLDY    81  76  84 SE7       29.99R

.........CENTRAL NC.........

CITY           SKY/WX    TMP DP  RH WIND       PRES   REMARKS
RALEIGH DURHAM CLOUDY    81  74  79 S7        29.99R
ROCKY MOUNT    CLOUDY    79  75  87 S8        29.98R
ROANOKE RAPIDS NOT AVBL
FAYETTEVILLE   CLOUDY    79  76  90 S8        29.96S
HOFFMAN        CLOUDY    82  76  84 S8        29.96R

.........WESTERN NC.........

CITY           SKY/WX    TMP DP  RH WIND       PRES   REMARKS
CHARLOTTE      MOCLDY    87  76  69 W5        29.97S HX  97
GREENSBORO     MOCLDY    86  74  67 W6        29.97R HX  94
HICKORY        NOT AVBL
BOONE          NOT AVBL
ASHEVILLE      NOT AVBL

.....................REST OF SOUTH CAROLINA.....................

.........EASTERN SC.........

CITY           SKY/WX    TMP DP  RH WIND       PRES   REMARKS
CHARLESTON     CLOUDY    84  77  79 SE6       29.98S HX  94
BEAUFORT MCAS  CLOUDY    88  79  74 S5        29.98R HX 103
HILTON HEAD    CLEAR     88  79  74 S12       29.99R HX 102

.........CENTRAL SC.........

CITY           SKY/WX    TMP DP  RH WIND       PRES   REMARKS
COLUMBIA       PTCLDY    90  74  59 S3        29.95R HX  99
ORANGEBURG     PTCLDY    86  75  69 S7        29.97R HX  95
SUMTER SHAW    MOCLDY    89  76  65 S8        29.94R HX 100

.........WESTERN SC.........

CITY           SKY/WX    TMP DP  RH WIND       PRES   REMARKS
GREENVILLE     NOT AVBL
ROCK HILL      CLOUDY    87  74  64 S5        29.98R HX  95
ANDERSON       CLEAR     88  73  61 SW8       29.99R HX  95
CLEMSON        NOT AVBL
GREENWOOD      CLEAR     87  74  64 SW7       30.00R HX  95


...................COASTAL AND OFFSHORE REPORTS..................

................LOCAL PIERS AND NC RESERVE................


STATION/POSITION TIME  SKY/WX   TEMP    WIND        PRES    VSBY
                                AIR SEA DIR/SP/G
                 (UTC)          (F)     (DEG/KT/KT) (MB)    (MI)
JOHNY MRCER PIER 2348            81 85  280/  4/  6 1014.2F
NC RESRV MASNBRO 2245            79     270/  1     1017.0
OCEAN CREST PIER NOT AVBL
SPRINGMAID  PIER 2348                               1014.4S


................COASTAL AND OFFSHORE BUOYS................


STATION/POSITION TIME  SKY/WX   TEMP    WIND        PRES    VSBY
                                AIR SEA DIR/SP/G
                 (UTC)          (F)     (DEG/KT/KT) (MB)    (MI)
DIMNDSHOAL 41025 2350            83 87  180/  8/ 10 1016.2R
WVE H/P(F/S)=  2/ 7 SWL H/P/D(F/S/D)=  2/ 60/ 7

CAPE LOOKOUT     0000            83     160/  8/  9 1015.6R
ONSLOW BAY 41036 NOT AVBL
ONSLOW BAY 41064 2308            82 84  210/  8/ 10 1015.8R
ONSLOW BAY 41159 2343               84                N/A
WVE H/P(F/S)=  2/ 7

MASNBO INL 41110 2329               84                N/A
WVE H/P(F/S)=  2/ 8

WILM HARBR 41108 2330               84                N/A
WVE H/P(F/S)=  2/ 5

27SE WRITB 41037 2308            81 84  200/ 16/ 21 1015.1F
FRYING PAN 41013 2350            85 85  200/  6/  8 1014.8F
WVE H/P(F/S)=  2/ 7 SWL H/P/D(F/S/D)=  2/110/ 7

SUNST NRSH 41024 2308            80 86   90/  2/  4 1015.0F
CAPRS NRSH 41029 2308            83 86  140/  6/  8 1015.3R
EDISTO     41004 2350            85     200/  6/  8 1014.9S
WVE H/P(F/S)=  2/ 9 SWL H/P/D(F/S/D)=  2/110/ 9



..........OFFSHORE BUOYS BEYOND 100 NM OFFSHORE...........
.....IN A TRIANGLE---HAT TO BERMUDA TO BAHAMAS TO HAT.....


STATION/POSITION TIME  SKY/WX   TEMP    WIND        PRES    VSBY
                                AIR SEA DIR/SP/G
                 (UTC)          (F)     (DEG/KT/KT) (MB)    (MI)
150E HAT   41001 0000               82   50/  6/ 10 1016.8
W BERMUDA  41048 0000            82 83  250/ 16/ 19 1017.2
ATLANTIC S 41049 2350            84 85   90/  8/ 12 1021.1R
WVE H/P(F/S)=  4/ 8 SWL H/P/D(F/S/D)=  5/120/ 8

E BAHAMAS  41046 0000            82 84   40/ 14/ 16 1018.3
NE BAHAMAS 41047 0000            84 85  140/ 10/ 12 1019.1
120E CANVRL41010 0000            85 86  190/  6/  8 1017.3

END




USA.gov is the U.S. government's official web portal to all federal, state and local government web resources and services.